Bear River@Wheatland

Start Stop
DateFlow
CFS
Gauge
Feet
DateFlow
CFS
Gauge
Feet
10/30/2020 22:459-0.17
10/30/2020 21:4510-0.16
10/30/2020 20:4510-0.16
10/30/2020 19:459-0.17
10/30/2020 18:459-0.17
10/30/2020 17:459-0.17
10/30/2020 16:4510-0.16
10/30/2020 15:459-0.17
10/30/2020 14:459-0.18
10/30/2020 13:459-0.18
10/30/2020 12:459-0.18
10/30/2020 11:459-0.18
10/30/2020 10:459-0.18
10/30/2020 09:459-0.18
10/30/2020 08:458-0.19
10/30/2020 07:458-0.19
10/30/2020 06:459-0.18
10/30/2020 05:459-0.18
10/30/2020 04:459-0.18
10/30/2020 03:459-0.18
10/30/2020 02:459-0.18
10/30/2020 01:459-0.17
10/30/2020 00:45 -0.18
10/29/2020 09:459-0.18
10/29/2020 08:458-0.19
10/29/2020 06:458-0.19
10/29/2020 05:459-0.18
10/28/2020 14:45 -0.18
10/28/2020 13:45 -0.17
10/28/2020 12:459-0.17
10/28/2020 11:4510-0.16
10/28/2020 10:4511-0.14
10/28/2020 09:45 -0.14
10/28/2020 08:4511-0.15
10/28/2020 07:4510-0.16
10/28/2020 05:4510-0.16
10/28/2020 04:4511-0.15
10/28/2020 03:4510-0.16
10/27/2020 23:4510-0.16
10/27/2020 22:459-0.17
10/27/2020 18:459-0.17
10/27/2020 17:4510-0.16
10/27/2020 16:4511-0.14
10/27/2020 15:4511-0.15
10/27/2020 14:4512-0.13
10/27/2020 13:45 -0.12
10/27/2020 12:45 -0.12
10/27/2020 11:4512-0.13
10/27/2020 10:4511-0.14
10/27/2020 09:459-0.17
10/27/2020 08:45 -0.18
10/26/2020 23:459-0.18
10/26/2020 22:458-0.19
10/26/2020 18:458-0.19
10/26/2020 17:459-0.18
10/26/2020 16:458-0.19
10/26/2020 15:459-0.18
10/26/2020 14:45 -0.17
10/26/2020 10:45 -0.17
10/26/2020 09:45 -0.18
10/26/2020 08:45 -0.17
10/26/2020 03:459-0.17
10/26/2020 02:4510-0.16
10/25/2020 23:4510-0.16
10/25/2020 22:4511-0.15
10/25/2020 21:459-0.17
10/25/2020 20:4510-0.16
10/25/2020 19:4510-0.16
10/25/2020 18:45 -0.15
10/25/2020 17:4511 
10/25/2020 13:45 -0.15
10/25/2020 12:45 -0.14
10/25/2020 11:4511-0.14
10/25/2020 10:4512-0.13
10/25/2020 09:4511-0.14
10/25/2020 04:4511-0.14
10/25/2020 03:4512-0.13
10/25/2020 02:4511-0.14
10/25/2020 01:4511-0.14
10/25/2020 00:4512-0.13
10/24/2020 23:4512-0.13
10/24/2020 22:4511-0.14
10/24/2020 21:4512-0.13
10/24/2020 18:45 -0.13
10/24/2020 17:45 -0.12
10/24/2020 15:4512-0.12
10/24/2020 14:4513-0.11
10/24/2020 13:4514-0.1
10/24/2020 12:45 -0.1
10/24/2020 11:45 -0.09
10/24/2020 10:4514-0.09
10/24/2020 09:4515-0.08
10/24/2020 08:4515-0.08
10/24/2020 07:4516-0.07
10/24/2020 06:45 -0.07
10/24/2020 05:4516-0.06
10/24/2020 04:4518-0.04
10/24/2020 03:4518-0.03
10/24/2020 02:4519-0.02
10/24/2020 01:4520-0.01
10/24/2020 00:4520-0.01
10/23/2020 23:45210
10/23/2020 22:45210.01
10/23/2020 21:45220.02
10/23/2020 18:45220.02
10/23/2020 17:45210
10/23/2020 16:4518-0.04
10/23/2020 15:4513-0.11
10/23/2020 14:4511-0.14
10/23/2020 13:45 -0.15
10/23/2020 12:45 -0.14
10/23/2020 11:45 -0.15
10/23/2020 07:4511-0.15
10/23/2020 06:4510-0.16
10/23/2020 02:4510-0.16
10/23/2020 01:4511-0.15
10/22/2020 23:4511-0.15
10/22/2020 22:4510-0.16
10/22/2020 21:4511-0.15
10/22/2020 20:45 -0.15
10/22/2020 19:45 -0.14
10/22/2020 18:4511-0.14
10/22/2020 17:4512-0.12
10/22/2020 16:4512-0.12
10/22/2020 15:4513-0.11
10/22/2020 14:4514-0.1
10/22/2020 13:4515-0.08
10/22/2020 12:4516-0.07
10/22/2020 11:45 -0.06
10/22/2020 10:45 -0.07
10/22/2020 09:4516-0.07
10/22/2020 08:4515-0.08
10/22/2020 07:4514-0.1
10/22/2020 02:45 -0.1
10/22/2020 01:45 -0.09
10/22/2020 00:45 -0.1
10/21/2020 22:4514-0.1
10/21/2020 21:4513-0.11
10/21/2020 20:4513-0.11
10/21/2020 19:4514-0.1
10/21/2020 16:45 -0.1
10/21/2020 15:4514-0.09
10/21/2020 14:4515-0.08
10/21/2020 13:4516-0.06
10/21/2020 12:4515-0.08
10/21/2020 11:4514-0.1
10/21/2020 10:4514-0.09
10/21/2020 09:4516-0.07
10/21/2020 08:4517-0.05
10/21/2020 05:4517-0.05
10/21/2020 04:4518-0.04
10/21/2020 03:4517-0.05
10/21/2020 02:4518-0.04
10/20/2020 20:4518-0.04
10/20/2020 19:4517-0.05
10/20/2020 18:4516-0.06
10/20/2020 17:4515-0.08
10/20/2020 16:4514-0.09
10/20/2020 15:4513-0.11
10/20/2020 13:4513-0.11
10/20/2020 12:4514-0.1
10/20/2020 11:4513-0.11
10/19/2020 23:4513-0.11
10/19/2020 22:4512-0.12
10/19/2020 21:4512-0.13
10/19/2020 20:4511-0.14
10/19/2020 19:45 -0.15
10/19/2020 16:45 -0.15
10/19/2020 15:45 -0.14
10/19/2020 14:4511-0.14
10/19/2020 13:4512-0.13
10/19/2020 09:4512-0.13
10/19/2020 08:4511-0.15
10/19/2020 05:4511-0.15
10/19/2020 04:4510-0.16
10/19/2020 03:4511-0.15
10/19/2020 00:4511-0.15
10/18/2020 23:4510-0.16
10/18/2020 21:4510-0.16
10/18/2020 20:4511-0.15
10/18/2020 12:4511-0.15
10/18/2020 11:4510-0.16
10/18/2020 10:4511-0.15
10/17/2020 17:45 -0.15
10/17/2020 16:45 -0.14
10/17/2020 14:4511-0.14
10/17/2020 13:4512-0.13
10/17/2020 12:4514-0.1
10/17/2020 11:4515-0.08
10/17/2020 10:4514-0.09
10/17/2020 09:4513-0.11
10/17/2020 08:4512-0.13
10/17/2020 07:45 -0.12
10/17/2020 06:45 -0.13
10/17/2020 05:45 -0.13
10/17/2020 04:45 -0.12
10/17/2020 03:45 -0.13
10/16/2020 23:45 -0.13
10/16/2020 22:4512-0.12
10/16/2020 21:4513-0.11
10/16/2020 20:4512-0.12
10/16/2020 17:45 -0.12
10/16/2020 16:45 -0.13
10/16/2020 13:4512-0.13
10/16/2020 12:4511-0.14
10/15/2020 16:4511-0.14
10/15/2020 15:4512-0.13
10/15/2020 14:4513-0.11
10/15/2020 13:4514-0.09
10/15/2020 12:45 -0.09
10/15/2020 11:4514-0.1
10/15/2020 10:4512-0.12
10/15/2020 09:45 -0.13
10/15/2020 08:45 -0.12
10/15/2020 07:4512-0.12
10/15/2020 06:4511-0.14
10/15/2020 05:4510-0.16
10/15/2020 04:459-0.17
10/15/2020 03:4510-0.16
10/15/2020 00:4510-0.16
10/14/2020 23:459-0.17
10/14/2020 22:4510-0.16
10/14/2020 15:4510-0.16
10/14/2020 14:4511-0.15
10/14/2020 13:45 -0.15
10/14/2020 12:45 -0.14
10/14/2020 11:45 -0.15
10/14/2020 10:45 -0.14
10/14/2020 09:4511-0.14
10/14/2020 08:4512-0.13
10/14/2020 07:45 -0.12
10/13/2020 22:45 -0.12
10/13/2020 21:4512-0.13
10/13/2020 20:4511-0.14
10/13/2020 19:4510-0.16
10/13/2020 18:459-0.17
10/13/2020 17:45 -0.17
10/13/2020 16:45 -0.18
10/13/2020 14:45 -0.18
10/13/2020 13:45 -0.17
10/13/2020 11:459-0.17
10/13/2020 10:4511-0.15
10/13/2020 09:4512-0.13
10/13/2020 08:4514-0.1
10/13/2020 05:45 -0.1
10/13/2020 04:45 -0.09
10/13/2020 03:45 -0.1
10/13/2020 02:45 -0.09
10/12/2020 21:4514-0.09
10/12/2020 20:4515-0.08
10/12/2020 19:4515-0.08
10/12/2020 18:4514-0.09
10/12/2020 17:4515-0.08
10/12/2020 15:4515-0.08
10/12/2020 14:4514-0.09
10/12/2020 13:4514-0.1
10/12/2020 12:4511-0.14
10/12/2020 11:457-0.21
10/12/2020 10:45 -0.21
10/12/2020 09:45 -0.22
10/12/2020 01:457-0.22
10/12/2020 00:456-0.23
10/11/2020 23:456-0.23
10/11/2020 22:457-0.22
10/11/2020 12:45 -0.22
10/11/2020 11:45 -0.21
10/11/2020 10:45 -0.21
10/11/2020 09:45 -0.22
10/11/2020 03:457-0.22
10/11/2020 02:456-0.23
10/11/2020 01:457-0.22
10/11/2020 00:456-0.23
10/10/2020 23:456-0.23
10/10/2020 22:457-0.22
10/10/2020 00:457-0.22
10/09/2020 23:456-0.23
10/09/2020 22:456-0.23
10/09/2020 21:457-0.22
10/09/2020 10:457-0.22
10/09/2020 09:456-0.23
10/09/2020 08:456-0.23
10/09/2020 07:457-0.22
10/09/2020 06:456-0.23
10/09/2020 05:457-0.22
10/09/2020 04:456-0.23
10/09/2020 03:457-0.22
10/09/2020 02:456-0.23
10/08/2020 20:456-0.23
10/08/2020 19:457-0.22
10/08/2020 14:457 
10/08/2020 13:4510 
10/08/2020 12:4510-0.22
10/08/2020 11:459-0.23
10/08/2020 10:4510-0.22
10/08/2020 09:459-0.23
10/08/2020 08:4510-0.22
10/08/2020 07:459-0.23
10/08/2020 00:45 -0.23
10/07/2020 23:459-0.24
10/07/2020 22:4510-0.21
10/07/2020 21:459-0.23
10/07/2020 20:459-0.23
10/07/2020 19:4510-0.22
10/07/2020 17:4510-0.22
10/07/2020 16:459-0.23
10/07/2020 15:4510-0.22
10/07/2020 07:4510-0.22
10/07/2020 06:459-0.23
10/06/2020 22:459-0.23
10/06/2020 21:4510-0.22
10/06/2020 16:45 -0.22
10/06/2020 15:45 -0.21
10/06/2020 14:45 -0.22
10/06/2020 13:45 -0.21
10/06/2020 12:45 -0.22
10/06/2020 02:4510-0.22
10/06/2020 01:459-0.23
10/06/2020 00:4510-0.22
10/05/2020 23:4511-0.2
10/05/2020 22:459-0.23
10/05/2020 21:459-0.23
10/05/2020 20:4510-0.22
10/05/2020 15:45 -0.22
10/05/2020 14:45 -0.21
10/05/2020 07:45 -0.21
10/05/2020 06:45 -0.22
10/05/2020 05:45 -0.21
10/05/2020 04:45 -0.22
10/05/2020 01:4510 
10/04/2020 21:45 -0.22
10/04/2020 20:45 -0.21
10/04/2020 19:4510-0.21
10/04/2020 18:4511-0.2
10/04/2020 17:4511-0.2
10/04/2020 16:4512-0.19
10/04/2020 15:4512-0.19
10/04/2020 14:4513-0.17
10/04/2020 13:4514-0.15
10/04/2020 12:4515-0.13
10/04/2020 11:4516-0.12
10/04/2020 10:4515-0.13
10/04/2020 09:45 -0.14
10/04/2020 05:4515-0.14
10/04/2020 04:4514-0.15
10/04/2020 03:4515-0.14
10/04/2020 02:4514-0.15
10/04/2020 01:4515-0.14
10/04/2020 00:4514-0.15
10/03/2020 22:4514-0.15
10/03/2020 21:4515-0.14
10/03/2020 17:45 -0.14
10/03/2020 16:45 -0.13
10/03/2020 13:4515-0.13
10/03/2020 12:4512-0.18
10/03/2020 07:45 -0.18
10/03/2020 06:45 -0.19
10/02/2020 18:4512-0.19
10/02/2020 17:4511-0.2
10/02/2020 16:4511-0.2
10/02/2020 15:4510-0.21
10/02/2020 14:45 -0.21
10/02/2020 13:45 -0.22
10/02/2020 12:45 -0.22
10/02/2020 11:45 -0.21
10/02/2020 10:45 -0.22
10/02/2020 09:45 -0.21
10/02/2020 08:45 -0.21
10/02/2020 07:45 -0.22
10/02/2020 06:45 -0.21
10/02/2020 05:45 -0.22
10/02/2020 04:45 -0.21
10/01/2020 21:4510-0.21
10/01/2020 20:4511-0.2
10/01/2020 17:4511-0.2
10/01/2020 16:4512-0.19
10/01/2020 15:45 -0.18
10/01/2020 14:45 -0.18
10/01/2020 13:4512-0.19
10/01/2020 12:4511-0.2
10/01/2020 05:4511-0.2
10/01/2020 04:4510-0.21
10/01/2020 02:45 -0.21
10/01/2020 01:45 -0.22
10/01/2020 00:45 -0.21

Start Stop